Regional Weather Roundup
Issued by NWS Albany, NY

Home | Current Version | Previous Version | Graphics & Text | Print | Product List | Glossary Off
Versions: 1 2 3 4 5 6 7 8 9 10 11 12 13 14 15 16 17 18 19 20 21 22 23 24 25 26 27 28 29 30 31 32 33 34 35 36 37 38 39 40 41 42 43 44 45 46 47 48 49 50

000
ASUS41 KALY 281910
RWRALY

NEW YORK STATE HOURLY WEATHER ROUNDUP
NATIONAL WEATHER SERVICE ALBANY NY
300 PM EDT FRI APR 28 2017

NOTE: "FAIR" INDICATES FEW OR NO CLOUDS BELOW 12,000 FEET WITH NO
SIGNIFICANT WEATHER AND/OR NO OBSTRUCTIONS TO VISIBILITY.

NYZ032-033-038>043-046>054-057>066-NYZ062>081-082-084-282000-
EAST


CITY           SKY/WX    TMP DP  RH WIND       PRES   REMARKS
ALBANY         MOSUNNY   77  50  38 CALM      29.96F
GLENS FALLS    SUNNY     78  44  29 SW10G17   29.93S
POUGHKEEPSIE   SUNNY     82  54  37 SW10      29.94S
NEWBURGH       MOSUNNY   82  52  34 W14       29.97F
MONTGOMERY     SUNNY     85  39  19 SW15G23   29.94R
WHITE PLAINS   MOSUNNY   80  58  46 S14G20    29.97F
ISLIP          MOSUNNY   75  62  64 S9        29.98F
NEW YORK CITY  MOSUNNY   84  51  31 S10G22    29.96F
CENTRAL PARK   SUNNY     83  49  30 VRB6      29.99F
$$

NYZ005>009-017-018-044>046-055-056-282000-
CENTRAL


CITY           SKY/WX    TMP DP  RH WIND       PRES   REMARKS
FULTON         CLOUDY    64  45  49 CALM      30.02R
SYRACUSE       PTSUNNY   69  44  40 W10       30.00R
ROME           PTSUNNY   68  47  46 NW6       30.01S
ELMIRA         MOSUNNY   75  41  29 VRB5      29.99S
BINGHAMTON     SUNNY     70  41  34 SW12      30.03R
MONTICELLO     SUNNY     77  45  31 SW12      30.02S
$$

NYZ026>034-041>043-087-282000-
NORTH


CITY           SKY/WX    TMP DP  RH WIND       PRES   REMARKS
WATERTOWN        N/A    N/A N/A N/A MISG      30.02S
FORT DRUM      NOT AVBL
OGDENSBURG     FAIR      65  48  53 SW13G22   29.98R
MASSENA        MOSUNNY   68  46  45 SW17G26   29.96R
SARANAC LAKE   SUNNY     69  36  29 SW14G21   29.96R
PLATTSBURGH    MOSUNNY   79  31  17 W10G18    29.90F
$$

NYZ001>004-010>016-019>021-085-282000-
WEST


CITY           SKY/WX    TMP DP  RH WIND       PRES   REMARKS
NIAGARA FALLS  SUNNY     65  45  48 SW17G24   30.00S
BUFFALO        PTSUNNY   58  44  60 SW14      30.02S
DUNKIRK        MOSUNNY   54  43  66 W12       30.03F
JAMESTOWN      MOSUNNY   64  39  39 SW13      30.03R
WELLSVILLE     MOSUNNY   68  34  28 W13G18    30.05S
ROCHESTER      PTSUNNY   70  43  37 SW12      30.00F
PENN YAN       MOSUNNY   73  36  25 SW5       30.00S
$$

             KEY
       WCI = WIND CHILL INDEX
       VSB = VISIBILITY
       HX  = HEAT INDEX
$$



USA.gov is the U.S. government's official web portal to all federal, state and local government web resources and services.